Terminal Aerodrome Forecast
Issued by NWS Memphis, TN

Home | Current Version | Previous Version | Text Only | Print | Product List | Glossary On
Versions: 1 2 3 4 5 6 7 8 9 10 11 12 13 14 15 16 17
000
FTUS44 KMEG 281124
TAFMKL
TAF
KMKL 281124Z 2812/0112 07006KT P6SM BKN060 OVC250
     FM010600 VRB03KT P6SM VCSH SCT025 OVC040
      TEMPO 0108/0112 BKN025=

USA.gov is the U.S. government's official web portal to all federal, state and local government web resources and services.